SCP
7 7 6 5 4 3 3 2 2 2 1 1 1 1 1 1 1 1 1 2 2 1 1 1 1 1 1 1 1 1 1 1 1 1 1 1 1 1 1 1 1 1 1
7 7 7 6 5 4 3 3 2 2 2 1 1 1 1 1 1 1 1 1 2 1 1 1 1 1 1 2 2 1 1 1 1 1 1 1 1 1 1 1 1 1 1
7 7 8 8 6 5 4 4 3 2 2 2 1 1 1 1 1 1 1 1 1 1 1 1 1 1 2 2 2 2 2 1 2 1 1 1 1 1 1 1 1 1 1
6 6 7 7 7 6 5 4 4 3 3 2 2 1 1 1 1 1 1 1 1 1 1 1 1 1 2 2 2 2 2 2 2 2 2 1 1 1 1 1 1 1 1
5 5 6 6 7 6 6 5 5 5 4 3 2 1 1 1 1 1 1 1 1 1 1 1 1 1 2 2 2 2 2 2 2 2 2 2 2 1 1 1 1 1 1
4 5 6 6 6 6 6 6 7 6 5 3 2 2 1 1 1 1 1 1 1 1 1 1 1 2 2 2 2 2 2 2 2 2 2 2 2 2 1 1 1 1 1
4 5 6 7 7 7 7 7 7 7 5 4 2 2 2 1 1 1 1 1 1 1 1 1 2 2 2 2 2 2 2 2 2 3 3 2 2 2 2 1 1 1 1
4 4 5 6 6 6 7 7 7 6 5 4 3 2 2 1 1 1 1 1 1 1 1 1 2 2 2 2 1 1 2 2 2 2 3 2 2 2 2 2 2 1 1
2 3 4 4 4 5 6 7 7 6 5 4 3 2 2 1 1 1 1 1 1 1 1 1 1 1 1 1 1 1 1 1 2 2 2 2 2 2 2 2 2 2 1
2 2 3 3 3 4 5 6 6 5 5 4 3 2 2 2 1 1 1 1 1 1 1 1 1 1 1 1 1 1 1 1 1 2 2 2 2 2 2 2 2 2 2
2 2 3 3 3 3 4 5 5 4 4 3 3 3 3 2 2 1 1 1 1 1 1 1 1 1 1 1 1 1 1 1 1 1 1 2 2 2 2 2 2 2 2
2 2 2 2 2 2 3 3 4 3 3 3 4 4 4 3 2 2 1 1 1 1 1 1 1 1 1 1 1 1 1 1 1 1 1 1 2 2 2 2 2 2 2
1 1 1 1 1 1 1 2 2 2 3 3 3 4 4 4 3 2 2 1 1 1 1 1 1 1 1 1 1 1 1 1 0 1 1 1 1 1 2 2 2 2 2
1 1 1 1 1 1 1 1 2 2 2 3 3 4 4 4 3 3 2 2 2 1 1 1 1 1 1 1 1 1 1 0 0 0 1 1 1 1 1 1 1 1 2
1 1 0 0 0 0 1 1 1 2 3 3 3 3 4 4 4 3 3 3 3 2 1 1 1 1 1 1 1 1 1 0 0 0 0 0 0 0 0 0 1 1 1
1 1 0 0 0 0 0 1 1 2 2 3 3 3 3 4 4 4 4 4 4 3 2 2 2 2 2 2 1 1 1 1 0 0 0 0 0 0 0 0 0 0 0
1 1 1 1 1 0 0 0 1 1 1 2 3 3 3 3 4 4 4 4 4 4 3 3 3 3 3 2 2 2 1 1 0 0 0 0 0 0 0 0 0 0 0
1 1 1 1 1 0 0 0 0 0 1 1 2 3 3 3 3 3 4 4 4 4 3 3 3 3 3 3 2 2 1 1 0 0 0 0 0 0 0 0 0 0 0
1 1 1 1 1 0 0 0 0 0 0 1 1 2 2 2 3 3 3 3 3 3 4 4 4 3 3 3 2 1 1 1 1 0 0 0 0 0 0 0 0 0 0
1 1 1 1 1 1 1 0 0 0 0 0 1 1 2 2 2 2 2 3 3 3 4 4 4 4 4 3 2 1 1 1 1 1 0 0 0 0 0 0 0 0 0
1 1 1 1 1 1 1 0 0 0 0 0 0 1 1 1 1 1 1 2 2 3 3 4 4 4 4 3 3 2 1 1 1 1 0 0 0 0 0 0 0 0 0
1 1 1 1 1 1 0 0 0 0 0 0 0 0 0 0 0 0 1 1 1 2 2 3 4 4 3 3 3 2 1 1 1 1 0 0 0 0 0 0 0 0 0
1 1 1 1 1 1 0 0 0 0 0 0 0 0 0 0 0 0 0 0 1 1 1 2 3 3 3 3 3 2 2 1 1 0 0 0 0 0 0 0 0 0 0
2 1 1 1 1 1 0 0 0 0 0 0 0 0 0 0 0 0 1 1 1 1 1 1 2 2 2 2 3 3 3 2 1 0 0 0 0 0 0 0 0 0 0
1 1 1 1 1 1 0 0 0 0 0 0 0 0 0 0 0 0 1 1 1 1 1 1 1 1 1 1 2 3 3 2 1 0 0 0 0 0 0 0 0 0 0
1 1 1 1 1 1 0 0 0 0 0 0 0 0 0 0 0 0 0 1 1 1 1 1 0 0 1 1 1 2 3 2 1 0 0 0 0 0 0 0 0 0 0
Wind_Speed
8 7 6 6 7 6 7 7 7 8 9 9 10 10 10 10 10 9 5 11 13 13 14 14 14 15 15 15 16 17 18 18 18 17 17 17 17 16 16 16 15 14 14
7 7 7 7 7 6 6 6 8 8 8 7 9 10 10 10 9 10 9 9 14 14 13 14 14 14 15 16 16 16 17 17 17 18 18 18 17 17 17 17 16 16 15
8 7 7 7 6 6 6 6 7 7 8 8 10 10 9 10 10 9 10 8 8 14 15 14 13 13 14 15 16 16 15 16 16 17 18 18 18 17 17 17 17 17 16
8 7 7 7 6 6 5 5 6 7 7 7 7 7 8 8 10 10 10 9 8 8 13 16 14 13 13 14 15 15 15 15 16 16 17 18 18 18 18 17 17 17 17
8 8 7 6 7 5 5 6 6 6 7 7 7 8 8 8 8 9 10 10 9 8 8 11 14 12 13 13 14 15 15 15 14 15 16 17 18 18 18 18 18 17 17
8 8 7 7 7 5 5 6 6 6 6 6 8 7 7 7 7 8 9 9 8 10 10 9 9 12 14 13 12 14 15 15 14 15 16 17 18 18 18 18 18 18 17
8 8 8 7 7 6 7 7 6 7 7 5 6 7 7 8 7 6 7 7 8 9 8 7 8 7 8 14 13 13 14 15 15 15 16 16 17 17 17 18 18 18 18
6 7 8 6 6 5 7 7 7 7 6 5 5 5 5 6 6 6 6 7 7 6 7 8 7 7 7 6 9 13 13 14 15 15 15 15 16 16 16 17 18 18 18
4 5 6 6 6 7 7 7 8 9 7 6 6 6 5 4 4 5 6 5 5 5 6 5 7 7 8 6 6 11 11 10 12 14 14 15 15 15 16 17 17 18 18
2 3 4 4 5 6 6 8 9 7 8 7 6 6 6 5 4 4 6 6 6 6 5 5 5 6 7 6 5 4 7 8 9 11 12 13 14 14 15 16 17 17 17
2 2 2 3 4 5 6 7 6 7 7 8 6 6 7 5 7 6 4 5 6 6 5 5 4 4 5 5 5 4 6 6 7 9 11 11 12 12 13 15 17 17 18
2 2 2 2 3 4 4 5 5 8 7 8 7 7 6 7 7 7 6 6 5 4 4 3 4 4 4 4 4 6 4 4 5 7 8 9 9 10 10 12 14 17 18
3 2 2 2 2 3 4 4 5 7 7 8 9 7 7 8 6 6 7 6 5 4 4 5 4 3 3 2 3 6 5 4 3 5 6 6 6 6 6 7 9 12 14
4 3 4 4 4 3 4 4 5 6 6 7 9 9 7 7 7 7 7 7 6 6 6 6 4 4 2 1 4 3 4 5 3 3 3 4 4 4 4 4 5 7 9
5 6 6 6 5 5 5 5 5 5 5 7 8 8 8 6 7 7 7 7 7 7 6 6 5 4 3 2 3 3 3 6 5 4 3 3 3 3 3 3 3 4 6
8 8 8 8 7 7 6 6 6 5 6 6 6 7 7 6 6 6 7 7 7 8 7 4 4 5 4 3 3 2 4 7 5 5 4 4 3 3 2 2 2 2 3
11 11 10 10 10 9 8 8 8 7 8 7 7 7 7 7 6 6 6 7 7 7 8 5 4 4 5 4 4 4 4 4 5 7 6 6 5 5 4 3 1 0 1
13 13 13 12 12 11 10 10 11 10 9 9 9 8 8 7 8 7 6 7 7 7 8 7 5 5 6 6 5 4 4 4 5 8 8 8 7 7 6 5 4 3 2
15 15 14 14 14 13 12 12 12 11 11 10 9 9 9 8 9 8 8 7 7 7 7 7 6 5 4 5 6 5 5 4 5 7 9 9 8 8 8 7 6 5 5
15 15 15 15 15 15 14 13 13 12 12 11 10 10 10 10 10 9 8 9 8 7 7 7 7 6 5 6 6 6 5 5 5 5 6 7 9 9 9 8 8 8 7
16 15 16 16 15 14 13 14 13 13 13 12 12 11 11 10 8 7 7 8 8 8 8 8 8 7 7 7 8 7 6 6 5 5 5 5 5 5 6 7 9 9 9
15 15 15 16 16 14 12 12 12 13 12 12 12 12 12 11 11 11 11 10 9 9 9 9 9 9 10 10 8 8 8 8 5 5 5 4 4 4 4 5 8 9 9
15 15 15 15 16 15 10 12 14 13 14 12 13 12 11 11 11 12 13 14 14 14 13 10 10 10 10 11 11 12 10 10 6 8 7 5 4 5 5 7 9 9 10
13 12 14 15 14 14 12 13 13 14 15 14 14 14 13 12 11 10 11 12 12 13 13 13 11 10 9 8 11 11 10 8 7 7 7 6 5 5 6 6 9 9 9
12 12 12 13 13 12 11 14 14 12 13 15 14 14 14 14 11 9 11 12 12 11 11 11 10 10 8 7 8 7 10 10 8 7 6 6 7 6 6 6 8 10 10
11 10 11 11 12 12 11 14 15 11 12 12 12 13 13 13 10 10 12 13 13 12 10 10 10 10 11 11 12 11 11 11 9 8 8 7 9 8 6 6 7 8 8
Wind_Direction
237 238 242 242 244 245 243 244 251 253 252 250 250 247 247 245 244 239 220 189 204 215 222 226 225 225 222 218 216 214 213 212 211 210 211 213 215 214 213 211 209 207 206
243 242 242 242 246 247 254 256 256 255 252 250 249 246 246 246 243 242 240 210 204 212 219 225 225 224 223 219 217 216 214 214 212 210 212 214 215 215 215 214 212 210 208
243 244 248 247 246 247 247 248 256 259 252 246 245 246 245 244 242 240 244 244 218 207 210 218 223 222 220 217 214 213 212 213 213 212 213 214 214 214 216 215 214 212 210
239 241 242 245 244 241 240 241 242 248 252 254 252 251 248 241 243 240 238 232 234 228 205 206 214 217 219 218 214 211 210 212 211 212 215 216 217 216 216 216 216 213 211
241 240 243 245 241 240 239 247 238 244 248 249 250 243 246 244 243 242 241 238 231 231 233 193 200 212 219 219 216 214 212 213 212 212 216 218 219 218 217 218 218 215 213
242 243 242 239 241 241 242 241 245 241 252 250 255 256 247 246 242 240 241 237 231 228 229 228 209 208 210 213 214 216 216 215 212 213 216 219 219 218 217 217 218 217 215
240 237 243 229 233 241 250 250 244 235 238 239 246 248 239 234 237 238 236 241 228 224 226 225 231 229 200 200 208 215 220 219 214 214 217 218 219 217 215 217 217 217 216
247 237 239 239 230 238 243 246 243 248 238 221 239 249 238 210 209 221 220 220 228 219 216 216 223 224 237 215 195 203 217 222 220 217 216 215 216 215 215 217 217 217 217
258 258 251 250 239 232 230 232 234 235 237 224 228 247 252 238 187 186 211 213 212 222 223 216 217 217 224 226 213 195 202 211 218 220 217 216 214 213 214 216 217 216 216
288 275 268 261 256 246 235 235 231 232 235 234 213 233 262 303 261 194 193 192 200 216 229 233 224 215 222 224 213 197 187 204 215 221 222 221 218 217 215 216 218 218 216
275 277 278 269 263 258 245 243 237 236 232 239 233 218 219 225 244 256 218 193 198 206 208 224 232 231 222 224 222 180 168 201 217 223 225 224 221 219 217 217 221 222 221
255 272 276 267 260 260 242 237 242 239 244 244 245 237 225 222 222 231 232 221 217 206 203 228 235 224 215 219 204 110 147 194 217 221 222 221 222 222 220 220 223 225 225
258 243 268 269 273 266 257 248 238 246 246 246 244 241 240 241 239 239 244 235 229 216 203 216 211 220 216 209 144 129 159 175 198 211 215 212 213 214 219 224 226 227 228
264 246 241 243 250 255 258 252 251 242 244 248 248 247 247 246 243 240 241 242 236 227 212 212 188 198 194 190 111 196 156 141 148 160 175 181 185 196 211 223 230 231 233
249 232 233 236 240 243 252 260 264 260 254 248 249 244 243 245 244 243 243 242 242 242 227 194 197 171 175 154 138 206 142 118 120 124 135 149 161 175 193 211 228 231 227
254 244 237 235 233 235 235 240 252 248 250 252 253 253 248 245 243 240 239 241 243 249 249 208 190 175 166 156 152 152 112 121 114 114 113 115 121 131 153 174 195 223 224
251 246 241 238 236 235 233 232 242 244 245 250 252 247 246 251 249 244 238 237 238 239 238 228 193 169 177 176 154 146 149 151 118 105 104 101 99 97 94 95 99 111 223
253 248 245 241 240 238 234 235 240 241 241 244 247 249 248 247 241 246 244 239 237 236 237 232 209 189 189 174 161 161 154 133 114 102 99 94 91 90 86 80 77 76 72
257 253 247 243 242 241 239 236 240 243 243 241 241 246 249 249 246 242 239 240 238 236 235 231 221 198 185 172 161 158 140 128 123 122 112 102 91 87 83 79 74 72 74
256 253 249 244 242 239 237 235 235 239 244 244 240 241 244 245 244 244 241 237 238 237 233 232 220 203 188 180 173 166 156 156 143 132 104 102 102 94 86 82 79 75 75
260 255 252 246 241 237 235 234 233 235 239 242 242 240 240 240 248 251 256 247 237 233 230 225 218 207 192 184 187 181 168 147 133 144 138 134 134 123 110 100 89 82 81
264 260 254 249 243 239 226 214 228 240 239 239 243 243 242 230 225 224 239 254 260 250 243 232 222 214 202 195 189 183 166 162 161 163 151 130 128 114 102 91 84 87 88
268 262 255 250 246 242 222 202 212 236 241 241 243 242 244 238 222 231 224 223 235 242 247 251 244 230 212 198 190 187 183 182 165 157 154 129 126 110 99 89 91 92 93
268 263 256 249 245 238 212 205 206 230 242 241 240 240 240 245 238 234 241 238 234 229 225 229 238 244 237 214 199 194 181 159 134 150 159 136 137 119 110 105 98 97 99
269 261 255 250 245 240 213 201 205 232 236 238 238 238 238 239 229 214 238 245 244 240 229 230 237 246 249 220 197 185 170 159 153 157 170 142 141 130 123 118 110 103 100
275 265 254 248 242 238 216 200 204 229 234 235 232 234 231 236 228 202 232 241 241 237 235 220 216 223 225 210 195 194 182 173 161 159 173 157 154 152 136 132 136 139 122